Location: Taipo
(41.0000°S, 175.9500°E)
Time: 00:25:50
(UTC+00:00)

ISS - Visible Passes

Search period start: 19 May 2026 00:00
Search period end: 29 May 2026 00:00
Orbit: 414 x 424 km, 51.6° (Epoch: 18 May)

Date Brightness Start Highest point End Pass type
(mag) Time Alt. Az. Time Alt. Az. Time Alt. Az.
19 May -2.3 17:25:13 30° SSE 17:25:13 30° SSE 17:27:21 10° SE visible
20 May -0.4 16:39:43 10° SE 16:39:43 10° SE 16:39:44 10° SE visible
20 May -1.9 18:12:40 17° SW 18:13:35 18° SSW 18:16:07 10° SSE visible
21 May -1.5 17:27:04 18° SSE 17:27:04 18° SSE 17:28:31 10° SE visible
22 May -1.5 18:14:21 13° SSW 18:15:28 15° S 18:17:30 10° SSE visible
23 May -1.2 17:28:38 14° SSE 17:28:38 14° SSE 17:29:44 10° SSE visible
24 May -1.4 18:15:49 12° SSW 18:17:22 15° S 18:19:24 10° SE visible
25 May -1.2 17:30:02 14° SSE 17:30:02 14° SSE 17:31:20 10° SE visible
26 May -1.6 18:17:12 13° SSW 18:19:12 19° SSE 18:21:44 10° ESE visible
27 May -1.4 17:31:25 16° SSE 17:31:25 16° SSE 17:33:29 10° SE visible
28 May -2.3 18:18:36 15° SSW 18:20:52 30° SSE 18:23:59 10° E visible
